Year,Month,Day,Hour,Minute,Value (Times are PST for temperature in C)
2010,03,23,00,00,5.80
2010,03,23,00,06,5.80
2010,03,23,00,07,5.80
2010,03,23,00,08,5.80
2010,03,23,00,09,5.80
2010,03,23,00,10,5.80
2010,03,23,00,11,5.80
2010,03,23,00,12,5.80
2010,03,23,00,13,5.80
2010,03,23,00,14,5.80
2010,03,23,00,15,5.80
2010,03,23,00,16,5.80
2010,03,23,00,17,5.80
2010,03,23,00,18,5.80
2010,03,23,00,19,5.80
2010,03,23,00,20,5.80
2010,03,23,00,21,5.80
2010,03,23,00,22,5.70
2010,03,23,00,23,5.70
2010,03,23,00,24,5.70
2010,03,23,00,25,5.70
2010,03,23,00,26,5.70
2010,03,23,00,27,5.70
2010,03,23,00,28,5.70
2010,03,23,00,29,5.70
2010,03,23,00,30,5.70
2010,03,23,00,31,5.60
2010,03,23,00,32,5.60
2010,03,23,00,33,5.60
2010,03,23,00,34,5.60
2010,03,23,00,35,5.60
2010,03,23,00,36,5.60
2010,03,23,00,37,5.60
2010,03,23,00,38,5.60
2010,03,23,00,39,5.60
2010,03,23,00,40,5.60
2010,03,23,00,41,5.70
2010,03,23,00,42,5.70
2010,03,23,00,43,5.70
2010,03,23,00,44,5.70
2010,03,23,00,45,5.70
2010,03,23,00,46,5.70
2010,03,23,00,47,5.70
2010,03,23,00,48,5.70
2010,03,23,00,49,5.70
2010,03,23,00,50,5.70
2010,03,23,00,51,5.70
2010,03,23,00,52,5.70
2010,03,23,00,53,5.70
2010,03,23,00,54,5.70
2010,03,23,00,55,5.70
2010,03,23,00,56,5.70
2010,03,23,00,57,5.70
2010,03,23,00,58,5.70
2010,03,23,00,59,5.70
2010,03,23,01,00,5.70
2010,03,23,01,01,5.70
2010,03,23,01,02,5.60
2010,03,23,01,03,5.60
2010,03,23,01,04,5.60
2010,03,23,01,05,5.50
2010,03,23,01,06,5.50
2010,03,23,01,07,5.50
2010,03,23,01,08,5.40
2010,03,23,01,09,5.40
2010,03,23,01,10,5.40
2010,03,23,01,11,5.40
2010,03,23,01,12,5.30
2010,03,23,01,13,5.30
2010,03,23,01,14,5.30
2010,03,23,01,15,5.30
2010,03,23,01,16,5.20
2010,03,23,01,17,5.20
2010,03,23,01,18,5.20
2010,03,23,01,19,5.20
2010,03,23,01,20,5.10
2010,03,23,01,21,5.10
2010,03,23,01,22,5.10
2010,03,23,01,23,5.10
2010,03,23,01,24,5.00
2010,03,23,01,25,5.00
2010,03,23,01,26,5.00
2010,03,23,01,27,4.90
2010,03,23,01,28,4.90
2010,03,23,01,29,4.90
2010,03,23,01,30,4.90
2010,03,23,01,31,4.90
2010,03,23,01,32,4.80
2010,03,23,01,33,4.80
2010,03,23,01,34,4.80
2010,03,23,01,35,4.80
2010,03,23,01,36,4.80
2010,03,23,01,37,4.70
2010,03,23,01,38,4.70
2010,03,23,01,39,4.70
2010,03,23,01,40,4.70
2010,03,23,01,41,4.70
2010,03,23,01,42,4.60
2010,03,23,01,43,4.60
2010,03,23,01,44,4.60
2010,03,23,01,45,4.60
2010,03,23,01,46,4.60
2010,03,23,01,47,4.60
2010,03,23,01,48,4.60
2010,03,23,01,49,4.60
2010,03,23,01,50,4.60
2010,03,23,01,51,4.50
2010,03,23,01,52,4.50
2010,03,23,01,53,4.50
2010,03,23,01,54,4.50
2010,03,23,01,55,4.50
2010,03,23,01,56,4.50
2010,03,23,01,57,4.50
2010,03,23,01,58,4.50
2010,03,23,01,59,4.50
2010,03,23,02,00,4.40
2010,03,23,02,01,4.40
2010,03,23,02,02,4.40
2010,03,23,02,03,4.40
2010,03,23,02,04,4.40
2010,03,23,02,05,4.40
2010,03,23,02,06,4.40
2010,03,23,02,07,4.40
2010,03,23,02,08,4.40
2010,03,23,02,09,4.40
2010,03,23,02,10,4.40
2010,03,23,02,11,4.40
2010,03,23,02,12,4.40
2010,03,23,02,13,4.40
2010,03,23,02,14,4.40
2010,03,23,02,15,4.50
2010,03,23,02,16,4.50
2010,03,23,02,17,4.50
2010,03,23,02,18,4.50
2010,03,23,02,19,4.50
2010,03,23,02,20,4.50
2010,03,23,02,21,4.50
2010,03,23,02,22,4.50
2010,03,23,02,23,4.50
2010,03,23,02,24,4.50
2010,03,23,02,25,4.50
2010,03,23,02,26,4.50
2010,03,23,02,27,4.50
2010,03,23,02,28,4.50
2010,03,23,02,29,4.50
2010,03,23,02,30,4.50
2010,03,23,02,31,4.50
2010,03,23,02,32,4.50
2010,03,23,02,33,4.50
2010,03,23,02,34,4.40
2010,03,23,02,35,4.40
2010,03,23,02,36,4.40
2010,03,23,02,37,4.40
2010,03,23,02,38,4.40
2010,03,23,02,39,4.40
2010,03,23,02,40,4.40
2010,03,23,02,41,4.40
2010,03,23,02,42,4.40
2010,03,23,02,43,4.30
2010,03,23,02,44,4.30
2010,03,23,02,45,4.30
2010,03,23,02,46,4.30
2010,03,23,02,47,4.30
2010,03,23,02,48,4.30
2010,03,23,02,49,4.30
2010,03,23,02,50,4.30
2010,03,23,02,51,4.30
2010,03,23,02,52,4.30
2010,03,23,02,53,4.30
2010,03,23,02,54,4.30
2010,03,23,02,55,4.20
2010,03,23,02,56,4.20
2010,03,23,02,57,4.20
2010,03,23,02,58,4.20
2010,03,23,02,59,4.20
2010,03,23,03,00,4.20
2010,03,23,03,01,4.20
2010,03,23,03,02,4.20
2010,03,23,03,03,4.20
2010,03,23,03,04,4.20
2010,03,23,03,05,4.10
2010,03,23,03,06,4.10
2010,03,23,03,07,4.10
2010,03,23,03,08,4.10
2010,03,23,03,09,4.10
2010,03,23,03,10,4.10
2010,03,23,03,11,4.10
2010,03,23,03,12,4.10
2010,03,23,03,13,4.00
2010,03,23,03,14,4.00
2010,03,23,03,15,4.00
2010,03,23,03,16,4.00
2010,03,23,03,17,4.00
2010,03,23,03,18,3.90
2010,03,23,03,19,3.90
2010,03,23,03,20,3.90
2010,03,23,03,21,3.90
2010,03,23,03,22,3.90
2010,03,23,03,23,3.90
2010,03,23,03,24,3.80
2010,03,23,03,25,3.80
2010,03,23,03,26,3.80
2010,03,23,03,27,3.80
2010,03,23,03,28,3.80
2010,03,23,03,29,3.80
2010,03,23,03,30,3.70
2010,03,23,03,31,3.70
2010,03,23,03,32,3.70
2010,03,23,03,33,3.70
2010,03,23,03,34,3.60
2010,03,23,03,35,3.60
2010,03,23,03,36,3.60
2010,03,23,03,37,3.60
2010,03,23,03,38,3.60
2010,03,23,03,39,3.60
2010,03,23,03,40,3.50
2010,03,23,03,41,3.50
2010,03,23,03,42,3.50
2010,03,23,03,43,3.40
2010,03,23,03,44,3.40
2010,03,23,03,45,3.40
2010,03,23,03,46,3.40
2010,03,23,03,47,3.40
2010,03,23,03,48,3.40
2010,03,23,03,49,3.40
2010,03,23,03,50,3.30
2010,03,23,03,51,3.30
2010,03,23,03,52,3.30
2010,03,23,03,53,3.30
2010,03,23,03,54,3.30
2010,03,23,03,55,3.30
2010,03,23,03,56,3.30
2010,03,23,03,57,3.30
2010,03,23,03,58,3.30
2010,03,23,03,59,3.30
2010,03,23,04,00,3.20
2010,03,23,04,01,3.20
2010,03,23,04,02,3.20
2010,03,23,04,03,3.20
2010,03,23,04,04,3.20
2010,03,23,04,05,3.20
2010,03,23,04,06,3.20
2010,03,23,04,07,3.20
2010,03,23,04,08,3.20
2010,03,23,04,09,3.20
2010,03,23,04,10,3.20
2010,03,23,04,11,3.20
2010,03,23,04,12,3.20
2010,03,23,04,13,3.20
2010,03,23,04,14,3.20
2010,03,23,04,15,3.20
2010,03,23,04,16,3.10
2010,03,23,04,17,3.10
2010,03,23,04,18,3.10
2010,03,23,04,19,3.10
2010,03,23,04,20,3.10
2010,03,23,04,21,3.10
2010,03,23,04,22,3.10
2010,03,23,04,23,3.10
2010,03,23,04,24,3.10
2010,03,23,04,25,3.10
2010,03,23,04,26,3.00
2010,03,23,04,27,3.00
2010,03,23,04,28,3.00
2010,03,23,04,29,3.00
2010,03,23,04,30,3.00
2010,03,23,04,31,3.00
2010,03,23,04,32,3.00
2010,03,23,04,33,3.00
2010,03,23,04,34,2.90
2010,03,23,04,35,2.90
2010,03,23,04,36,2.90
2010,03,23,04,37,2.90
2010,03,23,04,38,2.90
2010,03,23,04,39,2.90
2010,03,23,04,40,2.90
2010,03,23,04,41,2.90
2010,03,23,04,42,2.90
2010,03,23,04,43,2.90
2010,03,23,04,44,2.90
2010,03,23,04,45,2.80
2010,03,23,04,46,2.80
2010,03,23,04,47,2.80
2010,03,23,04,48,2.80
2010,03,23,04,49,2.80
2010,03,23,04,50,2.80
2010,03,23,04,51,2.80
2010,03,23,04,52,2.80
2010,03,23,04,53,2.70
2010,03,23,04,54,2.70
2010,03,23,04,55,2.70
2010,03,23,04,56,2.70
2010,03,23,04,57,2.70
2010,03,23,04,58,2.70
2010,03,23,04,59,2.70
2010,03,23,05,00,2.70
2010,03,23,05,01,2.70
2010,03,23,05,02,2.70
2010,03,23,05,03,2.70
2010,03,23,05,04,2.60
2010,03,23,05,05,2.60
2010,03,23,05,06,2.60
2010,03,23,05,07,2.60
2010,03,23,05,08,2.60
2010,03,23,05,09,2.60
2010,03,23,05,10,2.60
2010,03,23,05,11,2.60
2010,03,23,05,12,2.60
2010,03,23,05,13,2.50
2010,03,23,05,14,2.50
2010,03,23,05,15,2.50
2010,03,23,05,16,2.50
2010,03,23,05,17,2.50
2010,03,23,05,18,2.50
2010,03,23,05,19,2.50
2010,03,23,05,20,2.50
2010,03,23,05,21,2.50
2010,03,23,05,22,2.50
2010,03,23,05,23,2.50
2010,03,23,05,24,2.50
2010,03,23,05,25,2.50
2010,03,23,05,26,2.50
2010,03,23,05,27,2.50
2010,03,23,05,28,2.50
2010,03,23,05,29,2.50
2010,03,23,05,30,2.50
2010,03,23,05,31,2.50
2010,03,23,05,32,2.50
2010,03,23,05,33,2.50
2010,03,23,05,34,2.50
2010,03,23,05,35,2.50
2010,03,23,05,36,2.50
2010,03,23,05,37,2.50
2010,03,23,05,38,2.50
2010,03,23,05,39,2.50
2010,03,23,05,40,2.50
2010,03,23,05,41,2.50
2010,03,23,05,42,2.50
2010,03,23,05,43,2.50
2010,03,23,05,44,2.50
2010,03,23,05,45,2.60
2010,03,23,05,46,2.60
2010,03,23,05,47,2.60
2010,03,23,05,48,2.60
2010,03,23,05,49,2.60
2010,03,23,05,50,2.60
2010,03,23,05,51,2.60
2010,03,23,05,52,2.60
2010,03,23,05,53,2.70
2010,03,23,05,54,2.70
2010,03,23,05,55,2.70
2010,03,23,05,56,2.70
2010,03,23,05,57,2.70
2010,03,23,05,58,2.80
2010,03,23,05,59,2.80
2010,03,23,06,00,2.80
2010,03,23,06,01,2.80
2010,03,23,06,02,2.80
2010,03,23,06,03,2.90
2010,03,23,06,04,2.90
2010,03,23,06,05,2.90
2010,03,23,06,06,2.90
2010,03,23,06,07,2.90
2010,03,23,06,08,2.90
2010,03,23,06,09,3.00
2010,03,23,06,10,3.00
2010,03,23,06,11,3.00
2010,03,23,06,12,3.00
2010,03,23,06,13,3.00
2010,03,23,06,14,3.10
2010,03,23,06,15,3.10
2010,03,23,06,16,3.10
2010,03,23,06,17,3.10
2010,03,23,06,18,3.20
2010,03,23,06,19,3.20
2010,03,23,06,20,3.20
2010,03,23,06,21,3.20
2010,03,23,06,22,3.30
2010,03,23,06,23,3.30
2010,03,23,06,24,3.30
2010,03,23,06,25,3.30
2010,03,23,06,26,3.30
2010,03,23,06,27,3.30
2010,03,23,06,28,3.40
2010,03,23,06,29,3.40
2010,03,23,06,30,3.40
2010,03,23,06,31,3.40
2010,03,23,06,32,3.40
2010,03,23,06,33,3.40
2010,03,23,06,34,3.50
2010,03,23,06,35,3.50
2010,03,23,06,36,3.50
2010,03,23,06,37,3.50
2010,03,23,06,38,3.60
2010,03,23,06,39,3.60
2010,03,23,06,40,3.60
2010,03,23,06,41,3.60
2010,03,23,06,42,3.60
2010,03,23,06,43,3.60
2010,03,23,06,44,3.60
2010,03,23,06,45,3.60
2010,03,23,06,46,3.60
2010,03,23,06,47,3.60
2010,03,23,06,48,3.70
2010,03,23,06,49,3.70
2010,03,23,06,50,3.70
2010,03,23,06,51,3.70
2010,03,23,06,52,3.70
2010,03,23,06,53,3.70
2010,03,23,06,54,3.70
2010,03,23,06,55,3.70
2010,03,23,06,56,3.80
2010,03,23,06,57,3.80
2010,03,23,06,58,3.80
2010,03,23,06,59,3.80
2010,03,23,07,00,3.80
2010,03,23,07,01,3.80
2010,03,23,07,02,3.80
2010,03,23,07,03,3.90
2010,03,23,07,04,3.90
2010,03,23,07,05,3.90
2010,03,23,07,06,3.90
2010,03,23,07,07,3.90
2010,03,23,07,08,3.90
2010,03,23,07,09,3.90
2010,03,23,07,10,4.00
2010,03,23,07,11,4.00
2010,03,23,07,12,4.00
2010,03,23,07,13,4.00
2010,03,23,07,14,4.00
2010,03,23,07,15,4.00
2010,03,23,07,16,4.10
2010,03,23,07,17,4.10
2010,03,23,07,18,4.10
2010,03,23,07,19,4.10
2010,03,23,07,20,4.10
2010,03,23,07,21,4.10
2010,03,23,07,22,4.20
2010,03,23,07,23,4.20
2010,03,23,07,24,4.20
2010,03,23,07,25,4.20
2010,03,23,07,26,4.20
2010,03,23,07,27,4.20
2010,03,23,07,28,4.20
2010,03,23,07,29,4.30
2010,03,23,07,30,4.30
2010,03,23,07,31,4.30
2010,03,23,07,32,4.30
2010,03,23,07,33,4.30
2010,03,23,07,34,4.30
2010,03,23,07,35,4.30
2010,03,23,07,36,4.30
2010,03,23,07,37,4.30
2010,03,23,07,38,4.30
2010,03,23,07,39,4.40
2010,03,23,07,40,4.40
2010,03,23,07,41,4.40
2010,03,23,07,42,4.40
2010,03,23,07,43,4.40
2010,03,23,07,44,4.40
2010,03,23,07,45,4.40
2010,03,23,07,46,4.40
2010,03,23,07,47,4.40
2010,03,23,07,48,4.40
2010,03,23,07,49,4.40
2010,03,23,07,50,4.40
2010,03,23,07,51,4.40
2010,03,23,07,52,4.40
2010,03,23,07,53,4.40
2010,03,23,07,54,4.50
2010,03,23,07,55,4.50
2010,03,23,07,56,4.50
2010,03,23,07,57,4.50
2010,03,23,07,58,4.50
2010,03,23,07,59,4.50
2010,03,23,08,00,4.50
2010,03,23,08,01,4.50
2010,03,23,08,02,4.50
2010,03,23,08,03,4.60
2010,03,23,08,04,4.60
2010,03,23,08,05,4.60
2010,03,23,08,06,4.60
2010,03,23,08,07,4.60
2010,03,23,08,08,4.60
2010,03,23,08,09,4.60
2010,03,23,08,10,4.60
2010,03,23,08,11,4.60
2010,03,23,08,12,4.60
2010,03,23,08,13,4.60
2010,03,23,08,14,4.60
2010,03,23,08,15,4.60
2010,03,23,08,16,4.60
2010,03,23,08,17,4.60
2010,03,23,08,18,4.60
2010,03,23,08,19,4.60
2010,03,23,08,20,4.70
2010,03,23,08,21,4.70
2010,03,23,08,22,4.70
2010,03,23,08,23,4.70
2010,03,23,08,24,4.70
2010,03,23,08,25,4.70
2010,03,23,08,26,4.70
2010,03,23,08,27,4.70
2010,03,23,08,28,4.70
2010,03,23,08,29,4.80
2010,03,23,08,30,4.80
2010,03,23,08,31,4.80
2010,03,23,08,32,4.80
2010,03,23,08,33,4.80
2010,03,23,08,34,4.90
2010,03,23,08,35,4.90
2010,03,23,08,36,4.90
2010,03,23,08,37,5.00
2010,03,23,08,38,5.00
2010,03,23,08,39,5.10
2010,03,23,08,40,5.10
2010,03,23,08,41,5.20
2010,03,23,08,42,5.20
2010,03,23,08,43,5.20
2010,03,23,08,44,5.30
2010,03,23,08,45,5.30
2010,03,23,08,46,5.30
2010,03,23,08,47,5.40
2010,03,23,08,48,5.50
2010,03,23,08,49,5.50
2010,03,23,08,50,5.60
2010,03,23,08,51,5.70
2010,03,23,08,52,5.70
2010,03,23,08,53,5.80
2010,03,23,08,54,5.80
2010,03,23,08,55,5.90
2010,03,23,08,56,6.00
2010,03,23,08,57,6.00
2010,03,23,08,58,6.10
2010,03,23,08,59,6.20
2010,03,23,09,00,6.20
2010,03,23,09,01,6.30
2010,03,23,09,02,6.30
2010,03,23,09,03,6.40
2010,03,23,09,04,6.40
2010,03,23,09,05,6.50
2010,03,23,09,06,6.60
2010,03,23,09,07,6.60
2010,03,23,09,08,6.70
2010,03,23,09,09,6.70
2010,03,23,09,10,6.80
2010,03,23,09,11,6.90
2010,03,23,09,12,6.90
2010,03,23,09,13,6.90
2010,03,23,09,14,7.00
2010,03,23,09,15,7.10
2010,03,23,09,16,7.10
2010,03,23,09,17,7.10
2010,03,23,09,18,7.20
2010,03,23,09,19,7.20
2010,03,23,09,20,7.30
2010,03,23,09,21,7.30
2010,03,23,09,22,7.30
2010,03,23,09,23,7.40
2010,03,23,09,24,7.40
2010,03,23,09,25,7.50
2010,03,23,09,26,7.50
2010,03,23,09,27,7.60
2010,03,23,09,28,7.60
2010,03,23,09,29,7.70
2010,03,23,09,30,7.70
2010,03,23,09,31,7.80
2010,03,23,09,32,7.80
2010,03,23,09,33,7.90
2010,03,23,09,34,7.90
2010,03,23,09,35,8.00
2010,03,23,09,36,8.00
2010,03,23,09,37,8.10
2010,03,23,09,38,8.10
2010,03,23,09,39,8.20
2010,03,23,09,40,8.30
2010,03,23,09,41,8.30
2010,03,23,09,42,8.40
2010,03,23,09,43,8.40
2010,03,23,09,44,8.50
2010,03,23,09,45,8.50
2010,03,23,09,46,8.60
2010,03,23,09,47,8.60
2010,03,23,09,48,8.60
2010,03,23,09,49,8.70
2010,03,23,09,50,8.70
2010,03,23,09,51,8.70
2010,03,23,09,52,8.70
2010,03,23,09,53,8.80
2010,03,23,09,54,8.80
2010,03,23,09,55,8.80
2010,03,23,09,56,8.80
2010,03,23,09,57,8.90
2010,03,23,09,58,8.90
2010,03,23,09,59,8.90
2010,03,23,10,00,9.00
2010,03,23,10,01,9.10
2010,03,23,10,02,9.10
2010,03,23,10,03,9.10
2010,03,23,10,04,9.20
2010,03,23,10,05,9.20
2010,03,23,10,06,9.30
2010,03,23,10,07,9.30
2010,03,23,10,08,9.40
2010,03,23,10,09,9.50
2010,03,23,10,10,9.50
2010,03,23,10,11,9.60
2010,03,23,10,12,9.70
2010,03,23,10,13,9.70
2010,03,23,10,14,9.70
2010,03,23,10,15,9.70
2010,03,23,10,16,9.70
2010,03,23,10,17,9.80
2010,03,23,10,18,9.80
2010,03,23,10,19,9.80
2010,03,23,10,20,9.80
2010,03,23,10,21,9.90
2010,03,23,10,22,9.90
2010,03,23,10,23,9.90
2010,03,23,10,24,9.90
2010,03,23,10,25,9.80
2010,03,23,10,26,9.80
2010,03,23,10,27,9.90
2010,03,23,10,28,9.90
2010,03,23,10,29,9.90
2010,03,23,10,30,10.00
2010,03,23,10,31,10.00
2010,03,23,10,32,10.10
2010,03,23,10,33,10.20
2010,03,23,10,34,10.20
2010,03,23,10,35,10.30
2010,03,23,10,36,10.40
2010,03,23,10,37,10.40
2010,03,23,10,38,10.40
2010,03,23,10,39,10.40
2010,03,23,10,40,10.50
2010,03,23,10,41,10.50
2010,03,23,10,42,10.50
2010,03,23,10,43,10.50
2010,03,23,10,44,10.50
2010,03,23,10,45,10.40
2010,03,23,10,46,10.30
2010,03,23,10,47,10.20
2010,03,23,10,48,10.10
2010,03,23,10,49,10.00
2010,03,23,10,50,9.80
2010,03,23,10,51,9.70
2010,03,23,10,52,9.60
2010,03,23,10,53,9.50
2010,03,23,10,54,9.40
2010,03,23,10,55,9.40
2010,03,23,10,56,9.30
2010,03,23,10,57,9.30
2010,03,23,10,58,9.20
2010,03,23,10,59,9.20
2010,03,23,11,00,9.20
2010,03,23,11,01,9.30
2010,03,23,11,02,9.30
2010,03,23,11,03,9.30
2010,03,23,11,04,9.30
2010,03,23,11,05,9.30
2010,03,23,11,06,9.40
2010,03,23,11,07,9.40
2010,03,23,11,08,9.40
2010,03,23,11,09,9.40
2010,03,23,11,10,9.40
2010,03,23,11,11,9.40
2010,03,23,11,12,9.40
2010,03,23,11,13,9.50
2010,03,23,11,14,9.50
2010,03,23,11,15,9.50
2010,03,23,11,16,9.50
2010,03,23,11,17,9.60
2010,03,23,11,18,9.60
2010,03,23,11,19,9.60
2010,03,23,11,20,9.60
2010,03,23,11,21,9.60
2010,03,23,11,22,9.60
2010,03,23,11,23,9.60
2010,03,23,11,24,9.60
2010,03,23,11,25,9.70
2010,03,23,11,26,9.70
2010,03,23,11,27,9.70
2010,03,23,11,28,9.70
2010,03,23,11,29,9.70
2010,03,23,11,30,9.70
2010,03,23,11,31,9.70
2010,03,23,11,32,9.70
2010,03,23,11,33,9.70
2010,03,23,11,34,9.70
2010,03,23,11,35,9.70
2010,03,23,11,36,9.70
2010,03,23,11,37,9.70
2010,03,23,11,38,9.70
2010,03,23,11,39,9.70
2010,03,23,11,40,9.70
2010,03,23,11,41,9.70
2010,03,23,11,42,9.70
2010,03,23,11,43,9.70
2010,03,23,11,44,9.80
2010,03,23,11,45,9.80
2010,03,23,11,46,9.80
2010,03,23,11,47,9.80
2010,03,23,11,48,9.90
2010,03,23,11,49,9.90
2010,03,23,11,50,10.00
2010,03,23,11,51,10.00
2010,03,23,11,52,10.00
2010,03,23,11,53,10.00
2010,03,23,11,54,10.10
2010,03,23,11,55,10.10
2010,03,23,11,56,10.10
2010,03,23,11,57,10.10
2010,03,23,11,58,10.10
2010,03,23,11,59,10.10
2010,03,23,12,00,10.10
2010,03,23,12,01,10.10
2010,03,23,12,02,10.10
2010,03,23,12,03,10.00
2010,03,23,12,04,10.00
2010,03,23,12,05,10.00
2010,03,23,12,06,10.10
2010,03,23,12,07,10.10
2010,03,23,12,08,10.10
2010,03,23,12,09,10.10
2010,03,23,12,10,10.10
2010,03,23,12,11,10.10
2010,03,23,12,12,10.10
2010,03,23,12,13,10.10
2010,03,23,12,14,10.10
2010,03,23,12,15,10.10
2010,03,23,12,16,10.10
2010,03,23,12,17,10.10
2010,03,23,12,18,10.10
2010,03,23,12,19,10.10
2010,03,23,12,20,10.10
2010,03,23,12,21,10.10
2010,03,23,12,22,10.20
2010,03,23,12,23,10.20
2010,03,23,12,24,10.20
2010,03,23,12,25,10.20
2010,03,23,12,26,10.20
2010,03,23,12,27,10.20
2010,03,23,12,28,10.30
2010,03,23,12,29,10.30
2010,03,23,12,30,10.30
2010,03,23,12,31,10.30
2010,03,23,12,32,10.40
2010,03,23,12,33,10.40
2010,03,23,12,34,10.40
2010,03,23,12,35,10.50
2010,03,23,12,36,10.50
2010,03,23,12,37,10.50
2010,03,23,12,38,10.60
2010,03,23,12,39,10.60
2010,03,23,12,40,10.60
2010,03,23,12,41,10.60
2010,03,23,12,42,10.60
2010,03,23,12,43,10.60
2010,03,23,12,44,10.70
2010,03,23,12,45,10.70
2010,03,23,12,46,10.80
2010,03,23,12,47,10.90
2010,03,23,12,48,11.00
2010,03,23,12,49,11.10
2010,03,23,12,50,11.20
2010,03,23,12,51,11.30
2010,03,23,12,52,11.30
2010,03,23,12,53,11.40
2010,03,23,12,54,11.40
2010,03,23,12,55,11.50
2010,03,23,12,56,11.60
2010,03,23,12,57,11.60
2010,03,23,12,58,11.60
2010,03,23,12,59,11.60
2010,03,23,13,00,11.50
2010,03,23,13,01,11.50
2010,03,23,13,02,11.50
2010,03,23,13,03,11.40
2010,03,23,13,04,11.40
2010,03,23,13,05,11.40
2010,03,23,13,06,11.40
2010,03,23,13,07,11.30
2010,03,23,13,08,11.30
2010,03,23,13,09,11.40
2010,03,23,13,10,11.40
2010,03,23,13,11,11.50
2010,03,23,13,12,11.50
2010,03,23,13,13,11.60
2010,03,23,13,14,11.70
2010,03,23,13,15,11.80
2010,03,23,13,16,11.80
2010,03,23,13,17,11.80
2010,03,23,13,18,11.80
2010,03,23,13,19,11.80
2010,03,23,13,20,11.80
2010,03,23,13,21,11.70
2010,03,23,13,22,11.70
2010,03,23,13,23,11.70
2010,03,23,13,24,11.60
2010,03,23,13,25,11.60
2010,03,23,13,26,11.60
2010,03,23,13,27,11.60
2010,03,23,13,28,11.50
2010,03,23,13,29,11.60
2010,03,23,13,30,11.50
2010,03,23,13,31,11.50
2010,03,23,13,32,11.50
2010,03,23,13,33,11.50
2010,03,23,13,34,11.40
2010,03,23,13,35,11.40
2010,03,23,13,36,11.40
2010,03,23,13,37,11.40
2010,03,23,13,38,11.40
2010,03,23,13,39,11.40
2010,03,23,13,40,11.30
2010,03,23,13,41,11.30
2010,03,23,13,42,11.20
2010,03,23,13,43,11.20
2010,03,23,13,44,11.20
2010,03,23,13,45,11.20
2010,03,23,13,46,11.20
2010,03,23,13,47,11.20
2010,03,23,13,48,11.20
2010,03,23,13,49,11.20
2010,03,23,13,50,11.20
2010,03,23,13,51,11.20
2010,03,23,13,52,11.20
2010,03,23,13,53,11.10
2010,03,23,13,54,11.20
2010,03,23,13,55,11.20
2010,03,23,13,56,11.20
2010,03,23,13,57,11.20
2010,03,23,13,58,11.20
2010,03,23,13,59,11.20
2010,03,23,14,00,11.20
2010,03,23,14,01,11.20
2010,03,23,14,02,11.20
2010,03,23,14,03,11.20
2010,03,23,14,04,11.20
2010,03,23,14,05,11.20
2010,03,23,14,06,11.30
2010,03,23,14,07,11.30
2010,03,23,14,08,11.30
2010,03,23,14,09,11.30
2010,03,23,14,10,11.30
2010,03,23,14,11,11.30
2010,03,23,14,12,11.30
2010,03,23,14,13,11.30
2010,03,23,14,14,11.40
2010,03,23,14,15,11.40
2010,03,23,14,16,11.50
2010,03,23,14,17,11.50
2010,03,23,14,18,11.60
2010,03,23,14,19,11.60
2010,03,23,14,20,11.60
2010,03,23,14,21,11.60
2010,03,23,14,22,11.70
2010,03,23,14,23,11.70
2010,03,23,14,24,11.70
2010,03,23,14,25,11.70
2010,03,23,14,26,11.70
2010,03,23,14,27,11.70
2010,03,23,14,28,11.70
2010,03,23,14,29,11.60
2010,03,23,14,30,11.60
2010,03,23,14,31,11.60
2010,03,23,14,32,11.60
2010,03,23,14,33,11.60
2010,03,23,14,34,11.50
2010,03,23,14,35,11.40
2010,03,23,14,36,11.40
2010,03,23,14,37,11.30
2010,03,23,14,38,11.20
2010,03,23,14,39,11.20
2010,03,23,14,40,11.10
2010,03,23,14,41,11.10
2010,03,23,14,42,11.00
2010,03,23,14,43,11.00
2010,03,23,14,44,11.00
2010,03,23,14,45,11.00
2010,03,23,14,46,11.00
2010,03,23,14,47,11.00
2010,03,23,14,48,11.00
2010,03,23,14,49,11.10
2010,03,23,14,50,11.10
2010,03,23,14,51,11.10
2010,03,23,14,52,11.10
2010,03,23,14,53,11.20
2010,03,23,14,54,11.20
2010,03,23,14,55,11.20
2010,03,23,14,56,11.20
2010,03,23,14,57,11.30
2010,03,23,14,58,11.30
2010,03,23,14,59,11.30
2010,03,23,15,00,11.40
2010,03,23,15,01,11.40
2010,03,23,15,02,11.50
2010,03,23,15,03,11.50
2010,03,23,15,04,11.50
2010,03,23,15,05,11.40
2010,03,23,15,06,11.40
2010,03,23,15,07,11.30
2010,03,23,15,08,11.30
2010,03,23,15,09,11.20
2010,03,23,15,10,11.20
2010,03,23,15,11,11.20
2010,03,23,15,12,11.20
2010,03,23,15,13,11.20
2010,03,23,15,14,11.20
2010,03,23,15,15,11.20
2010,03,23,15,16,11.20
2010,03,23,15,17,11.20
2010,03,23,15,18,11.20
2010,03,23,15,19,11.10
2010,03,23,15,20,11.20
2010,03,23,15,21,11.20
2010,03,23,15,22,11.20
2010,03,23,15,23,11.20
2010,03,23,15,24,11.20
2010,03,23,15,25,11.20
2010,03,23,15,26,11.20
2010,03,23,15,27,11.20
2010,03,23,15,28,11.10
2010,03,23,15,29,11.10
2010,03,23,15,30,11.10
2010,03,23,15,31,11.00
2010,03,23,15,32,11.00
2010,03,23,15,33,10.90
2010,03,23,15,34,10.90
2010,03,23,15,35,10.90
2010,03,23,15,36,10.90
2010,03,23,15,37,10.90
2010,03,23,15,38,10.90
2010,03,23,15,39,10.90
2010,03,23,15,40,10.80
2010,03,23,15,41,10.80
2010,03,23,15,42,10.80
2010,03,23,15,43,10.80
2010,03,23,15,44,10.80
2010,03,23,15,45,10.80
2010,03,23,15,46,10.80
2010,03,23,15,47,10.80
2010,03,23,15,48,10.80
2010,03,23,15,49,10.80
2010,03,23,15,50,10.80
2010,03,23,15,51,10.80
2010,03,23,15,52,10.80
2010,03,23,15,53,10.80
2010,03,23,15,54,10.70
2010,03,23,15,55,10.70
2010,03,23,15,56,10.70
2010,03,23,15,57,10.70
2010,03,23,15,58,10.60
2010,03,23,15,59,10.60
2010,03,23,16,00,10.60
2010,03,23,16,01,10.50
2010,03,23,16,02,10.50
2010,03,23,16,03,10.40
2010,03,23,16,04,10.40
2010,03,23,16,05,10.40
2010,03,23,16,06,10.30
2010,03,23,16,07,10.30
2010,03,23,16,08,10.30
2010,03,23,16,09,10.30
2010,03,23,16,10,10.30
2010,03,23,16,11,10.30
2010,03,23,16,12,10.40
2010,03,23,16,13,10.40
2010,03,23,16,14,10.40
2010,03,23,16,15,10.40
2010,03,23,16,16,10.40
2010,03,23,16,17,10.50
2010,03,23,16,18,10.50
2010,03,23,16,19,10.50
2010,03,23,16,20,10.40
2010,03,23,16,21,10.40
2010,03,23,16,22,10.40
2010,03,23,16,23,10.40
2010,03,23,16,24,10.40
2010,03,23,16,25,10.40
2010,03,23,16,26,10.40
2010,03,23,16,27,10.40
2010,03,23,16,28,10.40
2010,03,23,16,29,10.40
2010,03,23,16,30,10.40
2010,03,23,16,31,10.40
2010,03,23,16,32,10.40
2010,03,23,16,33,10.40
2010,03,23,16,34,10.40
2010,03,23,16,35,10.40
2010,03,23,16,36,10.40
2010,03,23,16,37,10.40
2010,03,23,16,38,10.40
2010,03,23,16,39,10.40
2010,03,23,16,40,10.40
2010,03,23,16,41,10.40
2010,03,23,16,42,10.40
2010,03,23,16,43,10.40
2010,03,23,16,44,10.50
2010,03,23,16,45,10.50
2010,03,23,16,46,10.50
2010,03,23,16,47,10.40
2010,03,23,16,48,10.50
2010,03,23,16,49,10.50
2010,03,23,16,50,10.50
2010,03,23,16,51,10.60
2010,03,23,16,52,10.60
2010,03,23,16,53,10.60
2010,03,23,16,54,10.70
2010,03,23,16,55,10.70
2010,03,23,16,56,10.80
2010,03,23,16,57,10.80
2010,03,23,16,58,10.90
2010,03,23,16,59,10.90
2010,03,23,17,00,10.90
2010,03,23,17,01,10.90
2010,03,23,17,02,10.90
2010,03,23,17,03,10.90
2010,03,23,17,04,11.00
2010,03,23,17,05,11.00
2010,03,23,17,06,11.00
2010,03,23,17,07,11.10
2010,03,23,17,08,11.10
2010,03,23,17,09,11.10
2010,03,23,17,10,11.10
2010,03,23,17,11,11.20
2010,03,23,17,12,11.20
2010,03,23,17,13,11.20
2010,03,23,17,14,11.20
2010,03,23,17,15,11.20
2010,03,23,17,16,11.20
2010,03,23,17,17,11.10
2010,03,23,17,18,11.10
2010,03,23,17,19,11.10
2010,03,23,17,20,11.00
2010,03,23,17,21,10.90
2010,03,23,17,22,10.80
2010,03,23,17,23,10.80
2010,03,23,17,24,10.70
2010,03,23,17,25,10.70
2010,03,23,17,26,10.60
2010,03,23,17,27,10.60
2010,03,23,17,28,10.50
2010,03,23,17,29,10.50
2010,03,23,17,30,10.40
2010,03,23,17,31,10.40
2010,03,23,17,32,10.40
2010,03,23,17,33,10.40
2010,03,23,17,34,10.50
2010,03,23,17,35,10.50
2010,03,23,17,36,10.50
2010,03,23,17,37,10.50
2010,03,23,17,38,10.50
2010,03,23,17,39,10.50
2010,03,23,17,40,10.50
2010,03,23,17,41,10.40
2010,03,23,17,42,10.40
2010,03,23,17,43,10.40
2010,03,23,17,44,10.40
2010,03,23,17,45,10.40
2010,03,23,17,46,10.30
2010,03,23,17,47,10.30
2010,03,23,17,48,10.30
2010,03,23,17,49,10.20
2010,03,23,17,50,10.20
2010,03,23,17,51,10.20
2010,03,23,17,52,10.10
2010,03,23,17,53,10.10
2010,03,23,17,54,10.10